TimeEST,TemperatureF,Dew PointF,Humidity,Sea Level PressureIn,VisibilityMPH,Wind Direction,Wind SpeedMPH,Gust SpeedMPH,PrecipitationIn,Events,Conditions,WindDirDegrees,DateUTC
12:15 AM,66.2,66.2,100,30.30,6.0,ENE,5.8,-,N/A,,Partly Cloudy,70,2012-02-28 05:15:00
12:35 AM,66.2,66.2,100,30.29,7.0,ENE,4.6,-,N/A,,Scattered Clouds,60,2012-02-28 05:35:00
12:55 AM,64.4,64.4,100,30.28,7.0,ESE,3.5,-,N/A,,Partly Cloudy,110,2012-02-28 05:55:00
1:15 AM,64.4,64.4,100,30.28,5.0,Calm,Calm,-,N/A,,Clear,0,2012-02-28 06:15:00
1:35 AM,64.4,64.4,100,30.28,5.0,ENE,3.5,-,N/A,,Clear,70,2012-02-28 06:35:00
1:55 AM,64.4,64.4,100,30.28,5.0,Calm,Calm,-,N/A,,Clear,0,2012-02-28 06:55:00
2:15 AM,64.4,64.4,100,30.27,5.0,Calm,Calm,-,N/A,,Clear,0,2012-02-28 07:15:00
2:35 AM,62.6,62.6,100,30.27,4.0,Calm,Calm,-,N/A,,Clear,0,2012-02-28 07:35:00
2:55 AM,62.6,62.6,100,30.26,7.0,NE,3.5,-,N/A,,Clear,50,2012-02-28 07:55:00
3:15 AM,62.6,62.6,100,30.26,6.0,NE,3.5,-,N/A,,Clear,40,2012-02-28 08:15:00
3:35 AM,64.4,64.4,100,30.26,1.2,NE,3.5,-,N/A,,Mostly Cloudy,50,2012-02-28 08:35:00
3:55 AM,64.4,64.4,100,30.25,0.2,ENE,3.5,-,N/A,,Overcast,60,2012-02-28 08:55:00
4:15 AM,64.4,64.4,100,30.25,0.5,ENE,3.5,-,N/A,,Overcast,60,2012-02-28 09:15:00
4:35 AM,64.4,64.4,100,30.25,0.5,ENE,4.6,-,N/A,,Overcast,60,2012-02-28 09:35:00
4:55 AM,64.4,64.4,100,30.25,0.5,NE,5.8,-,N/A,,Overcast,50,2012-02-28 09:55:00
5:15 AM,64.4,64.4,100,30.26,0.5,NE,3.5,-,N/A,,Overcast,50,2012-02-28 10:15:00
5:35 AM,64.4,64.4,100,30.26,0.5,NNE,3.5,-,N/A,,Overcast,30,2012-02-28 10:35:00
5:55 AM,64.4,64.4,100,30.26,0.2,Calm,Calm,-,N/A,,Overcast,0,2012-02-28 10:55:00
6:15 AM,64.4,64.4,100,30.26,0.2,Calm,Calm,-,N/A,,Overcast,0,2012-02-28 11:15:00
6:35 AM,64.4,64.4,100,30.27,0.2,Calm,Calm,-,N/A,,Overcast,0,2012-02-28 11:35:00
6:55 AM,64.4,64.4,100,30.27,0.2,NNE,3.5,-,N/A,,Overcast,30,2012-02-28 11:55:00
7:15 AM,64.4,64.4,100,30.27,0.2,Calm,Calm,-,N/A,,Overcast,0,2012-02-28 12:15:00
7:30 AM,64.4,64.4,100,30.29,0.1,Calm,Calm,-,N/A,Fog,Fog,0,2012-02-28 12:30:00
7:35 AM,64.4,64.4,100,30.28,0.2,Calm,Calm,-,N/A,,Overcast,0,2012-02-28 12:35:00
8:52 AM,64.4,64.4,100,30.31,1.0,North,5.8,-,N/A,,Overcast,10,2012-02-28 13:52:00
9:51 AM,66.2,66.2,100,30.31,3.0,ENE,6.9,-,N/A,,Overcast,70,2012-02-28 14:51:00
10:50 AM,66.2,66.2,100,30.33,6.0,ENE,10.4,-,N/A,,Overcast,60,2012-02-28 15:50:00
12:05 PM,69.8,64.4,83,30.31,9.0,NE,10.4,-,N/A,,Overcast,50,2012-02-28 17:05:00
12:50 PM,71.6,64.4,78,30.29,9.0,East,9.2,-,N/A,,Overcast,80,2012-02-28 17:50:00
1:53 PM,75.2,64.4,69,30.27,12.0,NE,8.1,-,N/A,,Mostly Cloudy,40,2012-02-28 18:53:00
2:50 PM,78.8,62.6,57,30.23,12.0,ENE,4.6,-,N/A,,Mostly Cloudy,60,2012-02-28 19:50:00
3:15 PM,77.0,62.6,61,30.22,10.0,NE,9.2,-,N/A,,Partly Cloudy,40,2012-02-28 20:15:00
3:35 PM,78.8,62.6,57,30.22,10.0,ESE,4.6,-,N/A,,Clear,120,2012-02-28 20:35:00
4:15 PM,77.0,62.6,61,30.21,10.0,ESE,3.5,-,N/A,,Clear,110,2012-02-28 21:15:00
4:35 PM,80.6,62.6,54,30.21,10.0,ENE,11.5,-,N/A,,Partly Cloudy,70,2012-02-28 21:35:00
4:55 PM,78.8,62.6,57,30.21,10.0,ENE,6.9,-,N/A,,Partly Cloudy,60,2012-02-28 21:55:00
5:15 PM,78.8,62.6,57,30.20,10.0,East,9.2,-,N/A,,Clear,90,2012-02-28 22:15:00
5:35 PM,78.8,62.6,57,30.21,9.0,NE,11.5,-,N/A,,Clear,50,2012-02-28 22:35:00
5:55 PM,77.0,62.6,61,30.21,10.0,ENE,11.5,-,N/A,,Clear,60,2012-02-28 22:55:00
6:15 PM,75.2,62.6,65,30.22,10.0,ENE,6.9,-,N/A,,Clear,60,2012-02-28 23:15:00
6:35 PM,73.4,62.6,69,30.22,10.0,NE,6.9,-,N/A,,Clear,50,2012-02-28 23:35:00
6:55 PM,73.4,62.6,69,30.23,10.0,NE,6.9,-,N/A,,Clear,50,2012-02-28 23:55:00
7:15 PM,71.6,62.6,73,30.23,10.0,NE,6.9,-,N/A,,Partly Cloudy,50,2012-02-29 00:15:00
7:35 PM,71.6,62.6,73,30.24,10.0,NE,6.9,-,N/A,,Clear,50,2012-02-29 00:35:00
7:55 PM,69.8,62.6,78,30.25,10.0,ENE,6.9,-,N/A,,Clear,60,2012-02-29 00:55:00
8:35 PM,69.8,62.6,78,30.25,10.0,ENE,6.9,-,N/A,,Clear,70,2012-02-29 01:35:00
8:55 PM,69.8,62.6,78,30.26,10.0,East,8.1,-,N/A,,Clear,90,2012-02-29 01:55:00
9:15 PM,69.8,62.6,78,30.26,10.0,East,8.1,-,N/A,,Clear,80,2012-02-29 02:15:00
9:35 PM,68.0,62.6,83,30.27,10.0,East,5.8,-,N/A,,Clear,80,2012-02-29 02:35:00
9:55 PM,68.0,64.4,88,30.27,10.0,ENE,5.8,-,N/A,,Clear,70,2012-02-29 02:55:00
10:15 PM,66.2,62.6,88,30.27,10.0,East,5.8,-,N/A,,Clear,80,2012-02-29 03:15:00
10:35 PM,66.2,62.6,88,30.27,10.0,ENE,6.9,-,N/A,,Clear,70,2012-02-29 03:35:00
10:55 PM,66.2,62.6,88,30.27,10.0,East,4.6,-,N/A,,Clear,80,2012-02-29 03:55:00
11:15 PM,64.4,62.6,94,30.26,10.0,East,4.6,-,N/A,,Clear,80,2012-02-29 04:15:00
11:35 PM,64.4,62.6,94,30.26,10.0,East,3.5,-,N/A,,Partly Cloudy,80,2012-02-29 04:35:00
11:55 PM,64.4,62.6,94,30.25,10.0,East,3.5,-,N/A,,Clear,80,2012-02-29 04:55:00